Location: Dötzum
(52.0808°N, 9.8063°E)
Time: 05:28:18
(UTC+00:00)

NOSS 0 Rocket - Pass Details

Date: 27 May 2022
Orbit: 935 x 954 km, 70.0° (Epoch: 26 June)

Event Time Altitude Azimuth Distance (km) Brightness Sun altitude
Exits shadow 00:45:01 17° 225° (SW) 2,214 5.3 -14.2°
Maximum altitude 00:49:56 68° 306° (NW) 1,025 4.2 -13.9°
Drops below altitude 10° 00:56:10 10° 30° (NNE) 2,691 7.8 -13.6°
Sets 00:58:44 0° 33° (NNE) 3,638 8.9 -13.4°
